Tracking 28126 objects as of 1-Oct-2023
HD Live streaming from Space Station
objects crossing your sky now

DELTA 1 DEB

Track DELTA 1 DEB now!
10-day predictions


NORAD ID: 10650
Int'l Code: 1976-077L
Perigee: 1,524.6 km
Apogee: 2,244.6 km
Inclination: 102.1 °
Period: 124.4 minutes
Semi major axis: 8255 km
RCS: 0.1608 m2 (medium)
Launch date: July 29, 1976
Source: United States (US)
Launch site: AIR FORCE WESTERN TEST RANGE (AFWTR)

Note: This is SATELLITE DEBRIS
Your satellite tracking list
Your tracking list is empty




NASA's NSSDC Master Catalog

Two Line Element Set (TLE):
1 10650U 76077L   23273.12677549 -.00000024  00000-0  15331-3 0  9990
2 10650 102.0554 140.9400 0436069 146.0618 337.0784 11.57388006996457
Source of the keplerian elements: AFSPC